Location: Vassar Physics Lab
(41.6843°N, 73.8954°W)
Time: 19:54:28
(UTC-04:00)

Daily predictions for brighter satellites

Satellite Brightness Start Highest point End
(mag) Time Altitude Azimuth Time Altitude Azimuth Time Altitude Azimuth
Meteor 1-18 Rocket 4.4 20:12:07 10° N 20:18:00 63° ENE 20:23:53 10° SSE
SJ-6B 3.9 20:15:50 10° S 20:19:45 51° W 20:23:46 10° NNW
Cosmos 1812 2.7 20:21:06 10° N 20:25:01 85° E 20:28:52 10° S
Cosmos 839 Rocket 4.5 20:19:17 10° S 20:25:02 37° ESE 20:30:39 10° NE
Helios 1B rocket 3.9 20:24:01 10° NE 20:26:48 17° E 20:29:34 10° SE
Cosmos 1939 Rocket 3.6 20:24:55 10° SE 20:28:34 34° ENE 20:32:11 10° N
Cosmos 2297 Rocket 3.4 20:24:37 10° NW 20:29:59 44° WSW 20:35:18 10° S
Okean 2 Rocket 3.2 20:28:19 10° S 20:32:43 59° E 20:37:10 10° NNE
Cosmos 1452 Rocket 4.0 20:29:39 10° S 20:34:32 40° ESE 20:39:26 10° NE
Okean 1 3.3 20:35:20 10° N 20:39:17 62° E 20:43:12 10° SSE
ATLAS 2AS CENTAUR R/B 4.1 20:37:08 10° SSE 20:42:16 20° ESE 20:47:37 10° ENE
Cosmos 1536 4.4 20:40:16 11° SE 20:42:44 18° E 20:45:31 10° NE
Cosmos 407 Rocket 3.6 20:38:40 10° NNW 20:44:04 89° WSW 20:49:23 10° SSE
Cosmos 1190 Rocket 4.2 20:39:29 10° NNW 20:44:46 80° WSW 20:50:02 10° SSE
Lacrosse 5 rocket 1.9 20:42:36 10° NNW 20:46:04 39° NE 20:49:00 14° ESE
Resurs 1-3 4.1 20:43:52 10° S 20:48:13 64° WSW 20:52:35 10° NNW
NOSS 3-1 (A) 3.4 20:42:37 10° SSW 20:48:21 86° SE 20:54:50 10° NE
Cosmos 44 3.4 20:45:43 10° NNW 20:50:00 50° NE 20:53:33 15° SE
DELTA 2 R/B (1) 3.7 20:45:11 10° W 20:50:45 67° S 20:55:26 15° ESE
Cosmos 2322 Rocket 2.9 20:49:46 10° SSE 20:54:45 32° ESE 20:59:45 10° NE
Helios 1A 3.3 20:52:05 12° SE 20:55:45 48° ENE 20:59:51 10° N
Cosmos 2263 Rocket 3.4 20:54:04 10° N 20:58:57 28° NE 21:02:30 16° ESE
Cosmos 676 Rocket 4.0 20:55:16 10° NNW 21:00:36 85° ENE 21:05:48 11° SSE
Cosmos 1441 Rocket 4.5 20:58:10 10° NNW 21:01:42 40° W 21:05:12 10° SSW
GPS 2-05 Rocket1 4.1 20:59:07 10° SW 21:01:45 22° S 21:02:34 20° SSE
S3M 4.0 20:56:20 10° N 21:02:33 66° E 21:08:49 10° SSE
SL-16 R/B 2.7 20:58:01 10° S 21:03:10 38° ESE 21:08:20 10° NE
ARGOS 4.2 21:00:20 16° ESE 21:03:28 28° ENE 21:07:57 10° N
Cosmos 1553 Rocket 3.9 21:00:46 10° N 21:06:58 77° E 21:13:03 10° SSE
SAR-Lupe-4 4.4 21:07:32 23° ESE 21:09:02 33° ENE 21:12:18 10° N
Abrixas rocket 3.6 21:08:04 10° W 21:11:10 38° NNW 21:14:16 10° NE
Resurs 01 Rocket 3.4 21:07:56 10° SSW 21:11:55 32° W 21:15:57 10° NNW
Meteor 1-13 Rocket 4.3 21:07:38 10° N 21:13:37 76° E 21:19:06 12° SSE
MINOTAUR R/B 4.3 21:11:55 10° NNW 21:14:41 61° ENE 21:15:26 40° SE
Cosmos 1023 Rocket 4.5 21:10:13 10° NNW 21:15:30 82° ENE 21:19:28 18° SSE
Cosmos 2266 Rocket 4.1 21:10:24 10° SSE 21:16:10 49° E 21:21:58 10° NNE
CZ-4B DEB 2.6 21:18:18 39° SE 21:19:04 56° ENE 21:21:55 10° N
Terra 4.0 21:18:59 10° ENE 21:20:08 11° ENE 21:21:23 10° NE
Atlas Centaur 2 3.5 21:15:25 10° WSW 21:22:02 32° S 21:24:56 23° SE
SeaSat 1 3.7 21:17:56 10° NNE 21:22:37 44° WNW 21:27:16 10° SW
CZ-4C R/B 4.2 21:16:55 10° NW 21:23:28 35° WSW 21:30:31 10° S
Meteor 1-5 Rocket 4.4 21:20:23 19° SSE 21:23:52 43° E 21:28:52 10° NNE
H-2A R/B 3.1 21:22:24 22° E 21:24:14 27° ENE 21:28:25 10° N
Cosmos 1954 Rocket 4.2 21:19:09 10° NNW 21:24:27 72° WSW 21:28:43 16° S
Cosmos 1140 Rocket 3.5 21:19:43 10° NNW 21:24:58 84° WSW 21:28:44 19° SSE
Okean 1 Rocket 3.5 21:24:16 29° SE 21:25:49 39° E 21:29:54 10° NNE
SAR-Lupe-1 4.4 21:25:13 35° ESE 21:26:11 45° ENE 21:29:37 10° N
NOSS 2-3 (C) 4.2 21:22:01 10° S 21:26:20 40° ESE 21:31:15 10° NE
Cosmos 2360 Rocket 3.1 21:30:47 25° ESE 21:30:56 25° ESE 21:35:26 10° NE
Meteor 2-4 Rocket 3.6 21:25:58 10° N 21:31:29 76° E 21:35:11 22° SSE
Cosmos 1980 Rocket 3.4 21:26:32 10° SW 21:31:53 44° WNW 21:37:15 10° NNE
Meteor 1-29 2.8 21:28:39 10° NNE 21:32:06 79° ESE 21:33:54 26° S
Cosmos 2151 Rocket 4.1 21:29:29 10° SSW 21:33:49 60° W 21:38:10 10° N
Cosmos 44 Rocket 3.6 21:30:23 10° NW 21:35:03 58° WSW 21:37:44 25° S
Cosmos 1741 Rocket 4.0 21:29:54 10° NNW 21:35:07 65° ENE 21:37:33 32° SE
Cosmos 1300 Rocket 3.4 21:33:26 17° S 21:36:39 80° E 21:40:59 10° N
Cosmos 614 Rocket 4.0 21:32:34 10° NNW 21:37:40 76° WSW 21:40:45 24° S
Tiangong 1 0.9 21:35:44 10° W 21:38:29 66° N 21:38:33 65° NNE
BREEZE-M DEB (TANK) 3.1 21:36:37 10° WSW 21:39:49 83° NNW 21:49:56 10° ENE
MetOp-B 4.1 21:41:11 30° SSE 21:43:52 73° ENE 21:49:13 10° N
YAOGAN 6 4.1 21:44:07 15° SSW 21:46:34 33° W 21:49:49 10° NNW
NOAA 11 4.2 21:43:07 24° S 21:46:34 84° WSW 21:52:06 10° NNW
SL-08 RB Rocket 4.0 21:47:21 42° ESE 21:48:26 51° ENE 21:52:52 10° N
ERS-1 Rocket 2.9 21:46:00 29° SSE 21:48:36 86° WSW 21:53:39 10° NNW
USA 245 4.1 21:46:31 35° SE 21:48:41 61° ENE 21:53:24 10° N
ERBS 3.5 21:45:44 10° WSW 21:49:05 44° NW 21:52:25 10° NE
SPOT 5 3.1 21:48:23 40° SE 21:49:50 54° ENE 21:54:30 10° N
Meteor 1-11 Rocket 4.2 21:44:37 10° SSW 21:50:27 65° WNW 21:56:12 10° N
Cosmos 1025 Rocket 3.1 21:47:41 10° N 21:51:53 52° E 21:52:19 49° ESE
Lacrosse 5 4.1 22:02:48 12° ENE 22:02:48 12° ENE 22:03:11 10° ENE
H-2A R/B 4.3 21:59:25 13° ENE 21:59:25 13° ENE 22:01:05 10° NE
Helios 1B rocket 3.9 21:58:25 10° N 22:02:13 37° WNW 22:06:00 10° SW
Cosmos 220 Rocket 4.0 21:59:46 10° NNW 22:04:01 61° ENE 22:04:16 60° E
NOSS 2-3 (D) 3.7 22:01:12 10° SSW 22:05:51 85° SE 22:11:17 10° NE
ATLAS 3B R/B 3.3 21:59:27 10° NNW 22:05:54 43° NE 22:08:18 32° E
Cosmos 1110 Rocket 3.9 22:12:57 59° SE 22:13:27 63° ESE 22:18:34 10° NNE
Cosmos 1536 4.5 22:15:57 14° SW 22:18:54 32° WNW 22:22:37 10° NNW
Cosmos 1892 Rocket 4.2 22:15:34 10° N 22:19:16 44° NE 22:19:16 44° NE
SPOT 1/Viking Rocket 3.5 22:24:07 64° SSE 22:24:58 89° ENE 22:30:14 10° NNW
Lacrosse 5 rocket 3.0 22:22:03 10° WNW 22:24:42 23° WSW 22:24:42 23° WSW
Cosmos 1331 Rocket 3.8 22:31:13 78° SSE 22:31:29 81° ESE 22:36:43 10° NNE
Cosmos 1244 Rocket 4.3 22:29:41 47° S 22:31:36 89° ESE 22:37:47 10° N
ATLAS 2AS CENTAUR R/B 3.0 22:24:31 10° SSW 22:32:13 90° NW 22:40:23 10° NE
Nadezhda 1 Rocket 4.4 22:27:41 10° N 22:33:40 44° ENE 22:34:03 44° E
Cosmos 2278 Rocket 4.1 22:31:52 10° N 22:35:24 16° NE 22:36:33 16° ENE
Cosmos 1544 Rocket 4.5 22:38:19 40° NE 22:38:19 40° NE 22:41:21 10° NNE
Cosmos 2322 Rocket 3.6 22:33:24 10° SW 22:38:41 38° WNW 22:43:58 10° N
Landsat 7 3.8 22:42:03 81° NNW 22:42:03 81° NNW 22:46:36 10° NNW
Cosmos 2263 Rocket 2.9 22:37:39 10° NW 22:43:04 45° WSW 22:44:12 40° SW
ARGOS 4.2 22:41:52 31° SW 22:43:31 39° W 22:48:32 10° NNW
SL-16 R/B 3.8 22:42:13 10° WSW 22:47:17 33° WNW 22:52:23 10° N
Cosmos 1455 Rocket 4.1 22:51:37 39° NNE 22:51:37 39° NNE 22:54:31 10° NNE
Cosmos 1844 Rocket 3.2 22:47:04 10° NNW 22:52:30 48° ENE 22:52:30 48° ENE
Cosmos 2322 3.6 22:52:32 74° SW 22:53:01 83° WNW 22:58:45 10° NNE
Terra 2.1 22:57:53 64° NNW 22:57:53 64° NNW 23:01:55 10° NNW
SL-08 R/B 4.4 22:56:59 71° SSW 22:57:45 88° W 23:04:08 10° N
COSMOS 2428 3.3 23:00:05 44° NE 23:00:05 44° NE 23:04:09 10° NNE
Cosmos 2219 Rocket 3.7 23:05:33 24° NE 23:05:33 24° NE 23:08:05 10° NE
H-2A R/B 3.0 23:03:03 36° WSW 23:03:30 37° W 23:08:10 10° NNW
Atlas Centaur 2 4.2 23:05:09 10° WSW 23:07:34 18° SW 23:07:34 18° SW
Cosmos 2333 Rocket 3.8 23:15:38 23° NE 23:15:38 23° NE 23:17:56 10° NE
Cosmos 2360 Rocket 3.0 23:12:28 32° WSW 23:14:37 46° WNW 23:20:02 10° NNE
Cosmos 1844 4.1 23:09:05 10° NNW 23:14:05 53° NE 23:14:05 53° NE
CZ-2C R/B 4.5 23:13:25 10° NE 23:15:27 20° NE 23:15:27 20° NE
Cosmos 1745 Rocket 4.1 23:25:32 65° W 23:25:44 66° W 23:31:52 10° N
USA 238 DEB 3.7 23:22:06 10° NW 23:29:11 73° WSW 23:29:14 73° SW
USA 238 3.7 23:22:12 10° NW 23:29:17 73° WSW 23:29:20 73° SW
NOSS 3-2 (A) 4.0 23:22:58 10° NNW 23:30:28 70° NE 23:31:22 65° E
H-2A R/B 3.8 23:36:33 31° NNW 23:36:33 31° NNW 23:38:54 10° NNW
Lacrosse 5 3.0 23:41:50 41° NNW 23:41:50 41° NNW 23:46:16 10° NE
Cosmos 2237 Rocket 3.8 23:44:54 24° NE 23:44:54 24° NE 23:47:16 10° NE
CZ-2C R/B 4.3 23:50:30 32° N 23:50:30 32° N 23:53:13 10° N
